WetterOnline ( https://www.wetteronline.ch )

Wetter aktuell Groningen

Aktuelles Wetter: Groningen-Eelde (4m)

6-stündlich | Neueste Meldungen
Ortszeit Temperatur Wetter
Mi, 17.07. 8:00 15.0° C bedeckt
Mi, 17.07. 2:00 13.9° C bedeckt
Di, 16.07. 20:00 15.6° C bedeckt
Di, 16.07. 14:00 15.9° C bedeckt
Di, 16.07. 8:00 13.8° C bedeckt
Di, 16.07. 2:00 14.0° C bedeckt
Mo, 15.07. 20:00 14.2° C bedeckt
Mo, 15.07. 14:00 16.7° C bedeckt
Ortszeit Temperatur Wetter
Mi, 17.07. 9:00 15.2° C bedeckt
Mi, 17.07. 8:55 15° C bedeckt
Mi, 17.07. 8:25 15° C bedeckt
Mi, 17.07. 8:00 15.0° C bedeckt
Mi, 17.07. 7:55 15° C bedeckt
Mi, 17.07. 7:25 15° C bedeckt
Mi, 17.07. 7:00 14.5° C bedeckt
Mi, 17.07. 6:25 14° C bedeckt
Mi, 17.07. 6:00 14.1° C bedeckt
Mi, 17.07. 5:25 14° C bedeckt
Ortszeit Relative Feuchte Sichtweite
Mi, 17.07. 8:00 83% 45 km
Mi, 17.07. 2:00 96% 12 km
Di, 16.07. 20:00 82% 24 km
Di, 16.07. 14:00 81% 28 km
Di, 16.07. 8:00 87% 11 km
Di, 16.07. 2:00 82% 29 km
Mo, 15.07. 20:00 83% 13 km
Mo, 15.07. 14:00 62% 25 km
Ortszeit Relative Feuchte Sichtweite
Mi, 17.07. 9:00 83% 30 km
Mi, 17.07. 8:55 82% >10 km
Mi, 17.07. 8:25 82% >10 km
Mi, 17.07. 8:00 83% 45 km
Mi, 17.07. 7:55 82% >10 km
Mi, 17.07. 7:25 82% >10 km
Mi, 17.07. 7:00 85% 45 km
Mi, 17.07. 6:25 88% >10 km
Mi, 17.07. 6:00 84% 45 km
Mi, 17.07. 5:25 88% >10 km
Ortszeit Niederschlagsmenge Niederschlagsart
Mi, 17.07. 8:00 0.0 l/m2 in 12 Std. -
Mi, 17.07. 2:00 0.0 l/m2 in 6 Std. -
Di, 16.07. 20:00 0.0 l/m2 in 12 Std. -
Di, 16.07. 14:00 0.0 l/m2 in 6 Std. -
Di, 16.07. 8:00 0.0 l/m2 in 12 Std. -
Di, 16.07. 2:00 0.0 l/m2 in 6 Std. -
Mo, 15.07. 20:00 0.0 l/m2 in 12 Std. -
Mo, 15.07. 14:00 0.1 l/m2 in 6 Std. -
Ortszeit Niederschlagsmenge Niederschlagsart
Mi, 17.07. 9:00 0.0 l/m2 in 1 Std. -
Mi, 17.07. 8:55 keine Meldung -
Mi, 17.07. 8:25 keine Meldung -
Mi, 17.07. 8:00 keine Meldung -
Mi, 17.07. 7:55 keine Meldung -
Mi, 17.07. 7:25 keine Meldung -
Mi, 17.07. 7:00 0.0 l/m2 in 1 Std. -
Mi, 17.07. 6:25 keine Meldung -
Mi, 17.07. 6:00 0.0 l/m2 in 1 Std. -
Mi, 17.07. 5:25 keine Meldung -
Ortszeit Stärke Spitze Richtung
km/h Bft. km/h Grad Sektor
Mi, 17.07. 8:00 4 1 11 uml. uml.
Mi, 17.07. 2:00 4 1 14 280° W
Di, 16.07. 20:00 7 2 25 280° W
Di, 16.07. 14:00 18 3 25 300° NW
Di, 16.07. 8:00 11 2 25 280° W
Di, 16.07. 2:00 7 2 25 300° NW
Mo, 15.07. 20:00 14 3 36 290° W
Mo, 15.07. 14:00 22 4 32 320° NW
Ortszeit Stärke Spitze Richtung
km/h Bft. km/h Grad Sektor
Mi, 17.07. 9:00 4 1 11 260° W
Mi, 17.07. 8:55 6 1 - 290° W
Mi, 17.07. 8:25 4 1 - uml. uml.
Mi, 17.07. 8:00 4 1 11 uml. uml.
Mi, 17.07. 7:55 4 1 - 10° N
Mi, 17.07. 7:25 2 1 - 260° W
Mi, 17.07. 7:00 0 0 4 - -
Mi, 17.07. 6:25 2 1 - 150° SO
Mi, 17.07. 6:00 4 1 11 40° NO
Mi, 17.07. 5:25 6 1 - 10° N
Ortszeit Untergrenze Bedeckung Gattung
total tief tief mittel hoch
Mi, 17.07. 8:00 360 m 8/8 8/8 - - -
Mi, 17.07. 2:00 450 m 8/8 8/8 - - -
Di, 16.07. 20:00 390 m 8/8 8/8 - - -
Di, 16.07. 14:00 360 m 8/8 8/8 - - -
Di, 16.07. 8:00 270 m 8/8 8/8 - - -
Di, 16.07. 2:00 450 m 8/8 8/8 - - -
Mo, 15.07. 20:00 - 8/8 8/8 - - -
Mo, 15.07. 14:00 840 m 8/8 8/8 - - -
Ortszeit Bedeckungsgrad in Achtel und Wolkenuntergrenze
Mi, 17.07. 9:00 6(330m) 8(390m)
Mi, 17.07. 8:55 5-7(330m) 8(390m)
Mi, 17.07. 8:25 8(330m)
Mi, 17.07. 8:00 7(360m) 8(420m)
Mi, 17.07. 7:55 8(360m)
Mi, 17.07. 7:25 8(390m)
Mi, 17.07. 7:00 8(390m)
Mi, 17.07. 6:25 8(390m)
Mi, 17.07. 6:00 8(390m)
Mi, 17.07. 5:25 8(390m)
Ortszeit Luftdruck NN (hPa) Tendenz (hPa in 3 Std.)
Mi, 17.07. 8:00 1017 - 0,2
Mi, 17.07. 2:00 1017 - 0,4
Di, 16.07. 20:00 1018 - 0,3
Di, 16.07. 14:00 1018 - 0,1
Di, 16.07. 8:00 1018 - 0,1
Di, 16.07. 2:00 1019 - 0,4
Mo, 15.07. 20:00 1019 - 0,3
Mo, 15.07. 14:00 1020 - 0,2
Ortszeit Luftdruck NN (hPa) Tendenz (hPa in 3 Std.)
Mi, 17.07. 9:00 1017 - 0,1
Mi, 17.07. 8:55 1016 keine Meldung
Mi, 17.07. 8:25 1016 keine Meldung
Mi, 17.07. 8:00 1017 - 0,2
Mi, 17.07. 7:55 1016 keine Meldung
Mi, 17.07. 7:25 1016 keine Meldung
Mi, 17.07. 7:00 1017 - 0,3
Mi, 17.07. 6:25 1016 keine Meldung
Mi, 17.07. 6:00 1017 - 0,5
Mi, 17.07. 5:25 1016 keine Meldung
Ortszeit Schneehöhe (cm)
Mi, 17.07. 8:00 -
Mi, 17.07. 2:00 -
Di, 16.07. 20:00 -
Di, 16.07. 14:00 -
Di, 16.07. 8:00 -
Di, 16.07. 2:00 -
Mo, 15.07. 20:00 -
Mo, 15.07. 14:00 -
Ortszeit Schneehöhe (cm)
Mi, 17.07. 9:00 -
Mi, 17.07. 8:55 -
Mi, 17.07. 8:25 -
Mi, 17.07. 8:00 -
Mi, 17.07. 7:55 -
Mi, 17.07. 7:25 -
Mi, 17.07. 7:00 -
Mi, 17.07. 6:25 -
Mi, 17.07. 6:00 -
Mi, 17.07. 5:25 -
Link zu dieser Seite / Seite empfehlen

Das Wetter in ...